Date,TemperatureHighF,TemperatureAvgF,TemperatureLowF,DewpointHighF,DewpointAvgF,DewpointLowF,HumidityHigh,HumidityAvg,HumidityLow,PressureMaxIn,PressureMinIn,WindSpeedMaxMPH,WindSpeedAvgMPH,GustSpeedMaxMPH,PrecipitationSumIn
2013-1-1,30.4,28.3,22.0,28.1,23.6,13.1,91,82,68,30.00,29.90,5,2,15,0.00
2013-1-2,22.9,15.6,12.4,12.1,8.6,6.6,79,74,56,30.15,30.00,3,0,10,0.00
2013-1-3,30.6,12.1,4.3,19.1,5.9,-1.0,82,76,52,30.14,30.04,10,1,18,0.00
2013-1-4,26.7,26.7,26.7,18.9,18.7,18.2,72,72,71,30.11,30.11,7,3,13,0.00
2013-1-5,35.0,27.8,21.6,22.8,18.1,13.9,77,67,56,30.27,30.04,6,2,11,0.00
2013-1-6,36.4,33.9,30.3,30.1,25.9,23.2,85,72,64,30.11,29.86,7,3,18,0.02
2013-1-7,33.0,28.4,25.3,23.7,21.2,19.7,81,74,65,30.35,30.14,10,4,12,0.02
2013-1-8,29.4,24.3,21.0,22.1,19.2,16.2,84,81,73,30.24,30.14,7,1,8,0.00
2013-1-10,38.9,34.3,27.4,27.4,25.8,24.0,87,72,57,30.50,30.15,4,1,14,0.00
2013-1-11,56.2,47.6,39.0,49.4,39.9,24.6,92,75,53,30.12,29.76,10,5,16,0.29
2013-1-12,60.0,55.7,49.7,55.2,51.5,47.5,95,86,75,29.91,29.76,7,4,12,0.00
2013-1-13,64.2,61.3,52.3,55.1,53.8,49.2,90,77,67,29.76,29.64,13,8,26,0.11
2013-1-14,41.8,32.2,27.0,39.1,24.8,19.0,90,74,64,30.31,29.86,9,3,22,0.03
2013-1-15,31.0,27.0,22.2,20.3,18.8,17.5,83,72,61,30.29,30.01,3,1,11,0.00
2013-1-16,34.6,30.9,29.0,26.7,23.6,19.4,86,74,65,29.99,29.79,6,2,12,0.00
2013-1-17,34.7,32.1,26.6,26.3,24.0,14.0,80,72,60,30.12,29.91,23,2,25,0.00
2013-1-18,26.3,21.1,17.2,14.3,9.6,5.8,72,61,54,30.39,30.13,23,5,25,0.00
2013-1-19,51.6,45.0,31.8,24.6,21.8,16.6,55,40,26,30.09,29.67,21,9,27,0.00
2013-1-20,46.5,30.5,21.3,29.9,15.3,8.0,62,53,42,30.07,29.63,30,6,30,0.00
2013-1-21,21.4,19.1,8.8,13.9,8.0,-3.3,76,62,45,30.04,29.85,21,2,26,0.00
2013-1-22,12.1,7.7,5.0,0.0,-3.7,-7.9,72,59,48,30.23,30.03,18,3,21,0.00
2013-1-23,7.4,3.3,2.0,-0.5,-3.7,-4.9,73,72,69,30.23,30.21,5,0,5,0.00
2013-1-24,14.0,12.5,11.6,8.2,7.0,6.6,81,78,75,30.33,29.99,8,2,9,0.00
2013-1-25,17.5,15.8,10.7,13.2,9.8,0.6,83,77,58,30.43,29.95,6,0,13,0.00
2013-1-26,25.1,21.1,15.7,19.7,14.8,10.6,85,77,59,30.36,30.00,18,1,18,0.01
2013-1-27,29.7,23.7,11.1,18.4,14.0,6.4,84,67,53,30.44,30.18,13,1,13,0.00
2013-1-28,48.0,39.3,28.2,46.4,36.3,18.2,94,89,64,30.18,29.87,11,4,19,0.42
2013-1-29,62.0,55.1,47.7,54.1,49.7,46.1,96,83,64,29.92,29.56,20,7,20,0.05
2013-1-30,66.3,56.8,35.5,55.6,49.1,31.5,89,76,60,29.56,29.05,28,11,32,0.64
2013-1-31,35.5,26.3,20.6,31.7,17.5,8.4,86,69,56,29.70,29.21,30,6,32,0.01